Regional Weather Roundup
Issued by NWS

Home | Current Version | Previous Version | Text Only | Print | Product List | Glossary Off
Versions: 1 2 3 4 5 6 7 8 9 10 11 12 13 14 15 16 17 18 19 20 21 22 23 24 25 26 27 28 29 30 31 32 33 34 35 36 37 38 39 40 41 42 43 44 45 46 47 48 49 50

390
ASUS43 KFSD 290202
RWRSD

WEATHER ROUNDUP FOR SOUTH DAKOTA
NATIONAL WEATHER SERVICE SIOUX FALLS SD
900 PM CDT WED SEP 28 2016

NOTE: "FAIR" INDICATES FEW OR NO CLOUDS BELOW 12,000 FEET WITH NO
SIGNIFICANT WEATHER AND/OR OBSTRUCTIONS TO VISIBILITY.


SDZ001>005-009-010-012>017-290300-
NORTHWEST AND NORTH CENTRAL SOUTH DAKOTA

CITY           SKY/WX    TMP DP  RH WIND       PRES   REMARKS
BUFFALO          N/A     63  45  51 E13       30.23R
FAITH            N/A     57  36  45 SE12      30.32
MOBRIDGE       CLEAR     57  44  62 E9        30.32R
$$

SDZ012>016-024>037-041>051-057-063-072>074-290300-
SOUTHWEST AND SOUTH CENTRAL SOUTH DAKOTA

CITY           SKY/WX    TMP DP  RH WIND       PRES   REMARKS
RAPID CTY ARPT CLEAR     60  41  49 E10       30.31R
PIERRE         CLEAR     55  40  56 E6        30.32R
CUSTER         CLEAR     57  41  55 E6        30.41R
ELLSWORTH AFB  CLEAR     61  44  53 E7        30.31R
PHILIP         CLEAR     53  33  46 E6        30.31R
PINE RIDGE     CLEAR     58  43  57 E8        30.31R
WINNER         FAIR      53  44  71 SE9       30.34R
$$

SDZ004>011-016>023-039-040-290300-
NORTHEAST SOUTH DAKOTA

CITY           SKY/WX    TMP DP  RH WIND       PRES   REMARKS
ABERDEEN         N/A     52  43  71 E8        30.37R
WATERTOWN      CLEAR     50  44  80 N3        30.36R
SISSETON         N/A     47  44  90 NW3       30.36R
$$

SDZ017-020-022-023-036>040-048>070-290300-
SOUTHEAST SOUTH DAKOTA

CITY           SKY/WX    TMP DP  RH WIND       PRES   REMARKS
SIOUX FALLS    CLEAR     48  44  86 NE3       30.33R
HURON          CLEAR     53  45  74 E8        30.34R
CHAMBERLAIN    CLEAR     54  47  78 SE5       30.34R
MITCHELL       CLEAR     53  44  71 E7        30.34R
YANKTON        CLEAR     52  46  82 E7        30.32R
$$

ABBREVIATIONS USED IN REMARKS
   TC - TEMPERATURE IN CELSIUS
  WCI - WIND CHILL INDEX
   HX - HEAT INDEX
  VSB - VISIBILITY





USA.gov is the U.S. government's official web portal to all federal, state and local government web resources and services.